Regional Weather Roundup
Issued by NWS Cleveland, OH

Home | Current Version | Previous Version | Graphics & Text | Print | Product List | Glossary On
Versions: 1 2 3 4 5 6 7 8 9 10 11 12 13 14 15 16 17 18 19 20 21 22 23 24 25 26 27 28 29 30 31 32 33 34 35 36 37 38 39 40 41 42 43 44 45 46 47 48 49 50
000
ASUS41 KCLE 211700
RWRCLE
OHIO REGIONAL WEATHER ROUNDUP
NATIONAL WEATHER SERVICE WILMINGTON, OH
100 PM EDT MON AUG 21 2017

NOTE: "FAIR" INDICATES FEW OR NO CLOUDS BELOW 12,000 FEET WITH NO
SIGNIFICANT WEATHER AND/OR OBSTRUCTIONS TO VISIBILITY.

OHZ001>008-015>018-024>027-034-035-043-044-211800-
   NORTHWEST OHIO

CITY           SKY/WX    TMP DP  RH WIND       PRES   REMARKS
DEFIANCE       FAIR      85  69  58 SW9       30.09F
FINDLAY        FAIR      88  70  55 SW10      30.09F HX  93
TOLEDO EXPRESS FAIR      84  71  65 S7        30.09F
TOLEDO EXEC    FAIR      85  70  60 S7        30.10F
LIMA           FAIR      86  71  60 SW14      30.12F HX  91
$$

OHZ009>014-019>023-028>033-038-089-211800-
   NORTHEAST OHIO

CITY           SKY/WX    TMP DP  RH WIND       PRES   REMARKS
CLE-HOPKINS    FAIR      91  64  40 W6        30.13F HX  92
CLE-LAKEFRONT  FAIR      81  69  67 N3        30.11F
CUY CO. ARPT   MOSUNNY   86  63  45 NW9       30.14F
LORAIN-ELYRIA  FAIR      85  64  49 VRB3      30.12F
ASHTABULA      FAIR      83  69  62 W7        30.15S
AKRON-CANTON   FAIR      90  66  45 SW7       30.15F HX  92
WOOSTER        NOT AVBL
MANSFIELD      FAIR      87  67  51 VRB7      30.15F HX  90
YOUNGSTOWN     PTSUNNY   86  66  51 W10       30.15F
$$

OHZ042-051>053-060>062-070>072-077>081-211800-
  SOUTHWEST OHIO

CITY           SKY/WX    TMP DP  RH WIND       PRES   REMARKS
CINC-COVINGTON FAIR      88  71  57 S10       30.16F HX  94
CINC-LUNKEN    FAIR      89  71  55 S13       30.14F HX  95
HAMILTON       FAIR      91  68  46 SW8       30.15F HX  95
DAYTON         NOT AVBL
WRIGHT-PAT AFB NOT AVBL
DAYTON GENERAL FAIR      88  68  51 S12       30.15F HX  91
WILMINGTON     FAIR      87  73  62 S10       30.17F HX  94
$$

OHZ036-037-039>041-045>050-054>059-063>069-073>076-082>088-211800-
  CENTRAL AND SOUTHEAST OHIO

CITY           SKY/WX    TMP DP  RH WIND       PRES   REMARKS
COLUMBUS       FAIR      88  72  58 W8        30.14F HX  94
OSU AIRPORT    FAIR      86  73  65 W7        30.15F HX  93
BOLTON FIELD   SUNNY     86  73  66 SW7       30.16F HX  93
RICKENBACK AFB NOT AVBL
NEWARK         FAIR      86  71  60 SW8       30.15F HX  91
MARION         FAIR      86  69  56 SW5       30.14F HX  90
LANCASTER      FAIR      87  73  62 SW9       30.17F HX  94
ZANESVILLE     FAIR      86  72  62 W5        30.16F HX  92
NEW PHILLY     FAIR      85  74  69 VRB6      30.16F HX  92
$$



USA.gov is the U.S. government's official web portal to all federal, state and local government web resources and services.